Time,TemperatureF,DewpointF,PressureIn,WindDirection,WindDirectionDegrees,WindSpeedMPH,WindSpeedGustMPH,Humidity,HourlyPrecipIn,Conditions,Clouds,dailyrainin,SoftwareType,DateUTC
2013-06-23 00:00:00,68.3,64.6,30.12,ENE,66,0.0,0.0,88,0.00,CLR,,0.00,WeatherDisplay:10.37,2013-06-23 04:00:00,
2013-06-23 00:05:00,68.1,64.1,30.12,ENE,66,0.0,0.0,87,0.00,-RA,,0.00,WeatherDisplay:10.37,2013-06-23 04:05:00,
2013-06-23 00:10:00,68.0,63.7,30.12,ENE,66,0.0,0.0,86,0.00,-RA,,0.00,WeatherDisplay:10.37,2013-06-23 04:10:00,
2013-06-23 00:15:00,67.9,63.9,30.12,ENE,66,0.0,0.0,87,0.00,-RA,,0.00,WeatherDisplay:10.37,2013-06-23 04:15:00,
2013-06-23 00:20:00,67.9,64.5,30.12,ENE,66,0.0,0.0,89,0.00,-RA,,0.00,WeatherDisplay:10.37,2013-06-23 04:20:00,
2013-06-23 00:25:00,67.8,64.1,30.12,ENE,66,0.0,0.0,88,0.00,-RA,,0.00,WeatherDisplay:10.37,2013-06-23 04:25:00,
2013-06-23 00:30:00,67.6,63.6,30.13,ENE,66,0.0,0.0,87,0.00,-RA,,0.00,WeatherDisplay:10.37,2013-06-23 04:30:00,
2013-06-23 00:35:00,67.6,63.9,30.13,ENE,66,0.0,0.0,88,0.00,-RA,,0.00,WeatherDisplay:10.37,2013-06-23 04:35:00,
2013-06-23 00:40:00,67.5,64.1,30.12,ENE,66,0.0,0.0,89,0.00,-RA,,0.00,WeatherDisplay:10.37,2013-06-23 04:40:00,
2013-06-23 00:45:00,67.4,64.0,30.12,ENE,66,0.0,0.0,89,0.00,-RA,,0.00,WeatherDisplay:10.37,2013-06-23 04:45:00,
2013-06-23 00:50:00,67.3,63.9,30.12,ENE,66,0.0,0.0,89,0.00,-RA,,0.00,WeatherDisplay:10.37,2013-06-23 04:50:00,
2013-06-23 00:55:00,67.2,63.8,30.12,ENE,66,0.0,0.0,89,0.00,-RA,,0.00,WeatherDisplay:10.37,2013-06-23 04:55:00,
2013-06-23 01:00:00,67.1,63.7,30.12,ENE,66,0.0,0.0,89,0.00,-RA,,0.00,WeatherDisplay:10.37,2013-06-23 05:00:00,
2013-06-23 01:05:00,67.0,63.6,30.12,ENE,66,0.0,0.0,89,0.00,-RA,,0.00,WeatherDisplay:10.37,2013-06-23 05:05:00,
2013-06-23 01:10:00,67.0,64.0,30.12,ENE,66,0.0,0.0,90,0.00,-RA,,0.00,WeatherDisplay:10.37,2013-06-23 05:10:00,
2013-06-23 01:15:00,66.8,63.5,30.12,ENE,66,0.0,0.0,89,0.00,-RA,,0.00,WeatherDisplay:10.37,2013-06-23 05:15:00,
2013-06-23 01:20:00,66.7,63.4,30.12,ENE,66,0.0,0.0,89,0.00,-RA,,0.00,WeatherDisplay:10.37,2013-06-23 05:20:00,
2013-06-23 01:25:00,66.7,63.7,30.12,ENE,66,0.0,0.0,90,0.00,-RA,,0.00,WeatherDisplay:10.37,2013-06-23 05:25:00,
2013-06-23 01:30:00,66.6,63.5,30.12,ENE,66,0.0,0.0,90,0.00,-RA,,0.00,WeatherDisplay:10.37,2013-06-23 05:30:00,
2013-06-23 01:35:00,66.4,63.7,30.13,ENE,66,0.0,0.0,91,0.00,-RA,,0.00,WeatherDisplay:10.37,2013-06-23 05:35:00,
2013-06-23 01:40:00,66.3,63.6,30.12,ENE,66,0.0,0.0,91,0.00,-RA,,0.00,WeatherDisplay:10.37,2013-06-23 05:40:00,
2013-06-23 01:45:00,66.1,63.4,30.12,ENE,66,0.0,0.0,91,0.00,-RA,,0.00,WeatherDisplay:10.37,2013-06-23 05:45:00,
2013-06-23 01:50:00,66.0,63.3,30.12,ENE,66,0.0,0.0,91,0.01,-RA,,0.01,WeatherDisplay:10.37,2013-06-23 05:50:00,
2013-06-23 01:55:00,65.9,63.5,30.12,ENE,66,0.0,0.0,92,0.00,-RA,,0.01,WeatherDisplay:10.37,2013-06-23 05:55:00,
2013-06-23 02:00:00,65.8,63.4,30.11,ENE,67,0.0,0.0,92,0.00,-RA,,0.01,WeatherDisplay:10.37,2013-06-23 06:00:00,
2013-06-23 02:05:00,65.6,63.2,30.11,ENE,68,0.0,0.0,92,0.00,-RA,,0.01,WeatherDisplay:10.37,2013-06-23 06:05:00,
2013-06-23 02:10:00,65.5,63.1,30.11,ENE,68,0.0,0.0,92,0.00,-RA,,0.01,WeatherDisplay:10.37,2013-06-23 06:10:00,
2013-06-23 02:15:00,65.3,63.3,30.11,ENE,68,0.0,0.0,93,0.00,-RA,,0.01,WeatherDisplay:10.37,2013-06-23 06:15:00,
2013-06-23 02:20:00,65.2,63.2,30.11,ENE,68,0.0,0.0,93,0.00,-RA,,0.01,WeatherDisplay:10.37,2013-06-23 06:20:00,
2013-06-23 02:25:00,65.2,63.1,30.11,ENE,68,0.0,0.0,93,0.00,-RA,,0.01,WeatherDisplay:10.37,2013-06-23 06:25:00,
2013-06-23 02:30:00,65.1,63.0,30.11,ENE,68,0.0,0.0,93,0.00,-RA,,0.01,WeatherDisplay:10.37,2013-06-23 06:30:00,
2013-06-23 02:35:00,65.0,62.9,30.11,ENE,68,0.0,0.0,93,0.00,-RA,,0.01,WeatherDisplay:10.37,2013-06-23 06:35:00,
2013-06-23 02:40:00,65.0,62.9,30.11,ENE,68,0.0,0.0,93,0.00,-RA,,0.01,WeatherDisplay:10.37,2013-06-23 06:40:00,
2013-06-23 02:45:00,64.9,62.8,30.11,ENE,68,0.0,0.0,93,0.00,-RA,,0.01,WeatherDisplay:10.37,2013-06-23 06:45:00,
2013-06-23 02:50:00,64.9,63.1,30.10,ENE,68,0.0,0.0,94,0.00,-RA,,0.01,WeatherDisplay:10.37,2013-06-23 06:50:00,
2013-06-23 02:55:00,64.9,63.1,30.10,ENE,68,0.0,0.0,94,0.00,-RA,,0.01,WeatherDisplay:10.37,2013-06-23 06:55:00,
2013-06-23 03:00:00,64.8,63.0,30.10,ENE,68,0.0,0.0,94,0.00,-RA,,0.01,WeatherDisplay:10.37,2013-06-23 07:00:00,
2013-06-23 03:05:00,64.7,62.9,30.10,ENE,68,0.0,0.0,94,0.00,OVC,,0.01,WeatherDisplay:10.37,2013-06-23 07:05:00,
2013-06-23 03:10:00,64.7,62.9,30.10,ENE,68,0.0,0.0,94,0.00,OVC,,0.01,WeatherDisplay:10.37,2013-06-23 07:10:00,
2013-06-23 03:15:00,64.6,62.8,30.10,ENE,68,0.0,0.0,94,0.00,OVC,,0.01,WeatherDisplay:10.37,2013-06-23 07:15:00,
2013-06-23 03:20:00,64.7,62.9,30.10,ENE,68,0.0,0.0,94,0.00,OVC,,0.01,WeatherDisplay:10.37,2013-06-23 07:20:00,
2013-06-23 03:25:00,64.6,62.8,30.10,ENE,68,0.0,0.0,94,0.00,OVC,,0.01,WeatherDisplay:10.37,2013-06-23 07:25:00,
2013-06-23 03:30:00,64.6,62.8,30.10,ENE,68,0.0,0.0,94,0.00,OVC,,0.01,WeatherDisplay:10.37,2013-06-23 07:30:00,
2013-06-23 03:35:00,64.5,62.7,30.10,ENE,68,0.0,0.0,94,0.00,OVC,,0.01,WeatherDisplay:10.37,2013-06-23 07:35:00,
2013-06-23 03:40:00,64.5,62.7,30.09,ENE,68,0.0,0.0,94,0.00,OVC,,0.01,WeatherDisplay:10.37,2013-06-23 07:40:00,
2013-06-23 03:45:00,64.5,62.7,30.09,ENE,68,0.0,0.0,94,0.00,OVC,,0.01,WeatherDisplay:10.37,2013-06-23 07:45:00,
2013-06-23 03:50:00,64.4,62.6,30.09,ENE,68,0.0,0.0,94,0.00,OVC,,0.01,WeatherDisplay:10.37,2013-06-23 07:50:00,
2013-06-23 03:55:00,64.3,62.5,30.09,ENE,68,0.0,0.0,94,0.00,OVC,,0.01,WeatherDisplay:10.37,2013-06-23 07:55:00,
2013-06-23 04:00:00,64.3,62.5,30.09,ENE,68,0.0,0.0,94,0.00,OVC,,0.01,WeatherDisplay:10.37,2013-06-23 08:00:00,
2013-06-23 04:05:00,64.2,62.4,30.09,ENE,68,0.0,0.0,94,0.00,SCT,,0.01,WeatherDisplay:10.37,2013-06-23 08:05:00,
2013-06-23 04:10:00,64.1,62.3,30.09,ENE,68,0.0,0.0,94,0.00,SCT,,0.01,WeatherDisplay:10.37,2013-06-23 08:10:00,
2013-06-23 04:15:00,64.0,62.2,30.09,ENE,68,0.0,0.0,94,0.00,SCT,,0.01,WeatherDisplay:10.37,2013-06-23 08:15:00,
2013-06-23 04:20:00,64.0,62.2,30.08,ENE,68,0.0,0.0,94,0.00,SCT,,0.01,WeatherDisplay:10.37,2013-06-23 08:20:00,
2013-06-23 04:25:00,64.0,62.2,30.08,ENE,68,0.0,0.0,94,0.00,SCT,,0.01,WeatherDisplay:10.37,2013-06-23 08:25:00,
2013-06-23 04:30:00,63.9,62.2,30.08,ENE,68,0.0,0.0,94,0.00,SCT,,0.01,WeatherDisplay:10.37,2013-06-23 08:30:00,
2013-06-23 04:35:00,63.9,62.1,30.08,ENE,68,0.0,0.0,94,0.00,SCT,,0.01,WeatherDisplay:10.37,2013-06-23 08:35:00,
2013-06-23 04:40:00,63.9,62.1,30.08,ENE,68,0.0,0.0,94,0.00,SCT,,0.01,WeatherDisplay:10.37,2013-06-23 08:40:00,
2013-06-23 04:45:00,63.8,62.0,30.09,ENE,68,0.0,0.0,94,0.00,SCT,,0.01,WeatherDisplay:10.37,2013-06-23 08:45:00,
2013-06-23 04:50:00,63.7,61.9,30.09,ENE,68,0.0,0.0,94,0.00,SCT,,0.01,WeatherDisplay:10.37,2013-06-23 08:50:00,
2013-06-23 04:55:00,63.5,61.8,30.08,ENE,68,0.0,0.0,94,0.00,SCT,,0.01,WeatherDisplay:10.37,2013-06-23 08:55:00,
2013-06-23 05:00:00,63.5,61.7,30.08,ENE,68,0.0,0.0,94,0.00,SCT,,0.01,WeatherDisplay:10.37,2013-06-23 09:00:00,
2013-06-23 05:05:00,63.3,61.5,30.09,ENE,68,0.0,0.0,94,0.00,FEW,,0.01,WeatherDisplay:10.37,2013-06-23 09:05:00,
2013-06-23 05:10:00,63.2,61.4,30.09,ENE,68,0.0,0.0,94,0.00,FEW,,0.01,WeatherDisplay:10.37,2013-06-23 09:10:00,
2013-06-23 05:15:00,63.1,61.3,30.08,ENE,68,0.0,0.0,94,0.00,FEW,,0.01,WeatherDisplay:10.37,2013-06-23 09:15:00,
2013-06-23 05:20:00,63.0,61.2,30.09,ENE,68,0.0,0.0,94,0.00,FEW,,0.01,WeatherDisplay:10.37,2013-06-23 09:20:00,
2013-06-23 05:25:00,62.9,61.1,30.09,ENE,68,0.0,0.0,94,0.00,FEW,,0.01,WeatherDisplay:10.37,2013-06-23 09:25:00,
2013-06-23 05:30:00,62.9,61.1,30.09,ENE,68,0.0,0.0,94,0.00,FEW,,0.01,WeatherDisplay:10.37,2013-06-23 09:30:00,
2013-06-23 05:35:00,62.9,61.4,30.09,ENE,68,0.0,0.0,95,0.00,FEW,,0.01,WeatherDisplay:10.37,2013-06-23 09:35:00,
2013-06-23 05:40:00,62.7,60.9,30.09,ENE,68,0.0,0.0,94,0.00,FEW,,0.01,WeatherDisplay:10.37,2013-06-23 09:40:00,
2013-06-23 05:45:00,62.6,60.8,30.09,ENE,68,0.0,0.0,94,0.00,FEW,,0.01,WeatherDisplay:10.37,2013-06-23 09:45:00,
2013-06-23 05:50:00,62.6,60.8,30.09,ENE,68,0.0,0.0,94,0.00,FEW,,0.01,WeatherDisplay:10.37,2013-06-23 09:50:00,
2013-06-23 05:55:00,62.6,61.1,30.10,ENE,68,0.0,0.0,95,0.00,FEW,,0.01,WeatherDisplay:10.37,2013-06-23 09:55:00,
2013-06-23 06:00:00,62.6,61.1,30.09,ENE,68,0.0,0.0,95,0.00,FEW,,0.01,WeatherDisplay:10.37,2013-06-23 10:00:00,
2013-06-23 06:05:00,62.7,61.2,30.09,ENE,68,0.0,0.0,95,0.00,BKN,,0.01,WeatherDisplay:10.37,2013-06-23 10:05:00,
2013-06-23 06:10:00,62.7,61.2,30.09,ENE,68,0.0,0.0,95,0.00,BKN,,0.01,WeatherDisplay:10.37,2013-06-23 10:10:00,
2013-06-23 06:15:00,62.8,61.3,30.09,ENE,68,0.0,0.0,95,0.00,BKN,,0.01,WeatherDisplay:10.37,2013-06-23 10:15:00,
2013-06-23 06:20:00,62.9,61.4,30.09,ENE,68,0.0,0.0,95,0.00,BKN,,0.01,WeatherDisplay:10.37,2013-06-23 10:20:00,
2013-06-23 06:25:00,63.0,61.5,30.09,ENE,68,0.0,0.0,95,0.00,BKN,,0.01,WeatherDisplay:10.37,2013-06-23 10:25:00,
2013-06-23 06:30:00,63.2,61.7,30.09,ENE,68,0.0,0.0,95,0.00,BKN,,0.01,WeatherDisplay:10.37,2013-06-23 10:30:00,
2013-06-23 06:35:00,63.3,61.8,30.09,ENE,68,0.0,0.0,95,0.00,BKN,,0.01,WeatherDisplay:10.37,2013-06-23 10:35:00,
2013-06-23 06:40:00,63.4,61.9,30.09,ENE,68,0.0,0.0,95,0.00,BKN,,0.01,WeatherDisplay:10.37,2013-06-23 10:40:00,
2013-06-23 06:45:00,63.4,61.9,30.09,ENE,68,0.0,0.0,95,0.00,BKN,,0.01,WeatherDisplay:10.37,2013-06-23 10:45:00,
2013-06-23 06:50:00,63.5,62.0,30.09,ENE,68,0.0,0.0,95,0.00,BKN,,0.01,WeatherDisplay:10.37,2013-06-23 10:50:00,
2013-06-23 06:55:00,63.6,62.2,30.09,ENE,68,0.0,2.0,95,0.00,BKN,,0.01,WeatherDisplay:10.37,2013-06-23 10:55:00,
2013-06-23 07:00:00,63.8,62.4,30.09,SE,126,0.0,1.0,95,0.00,BKN,,0.01,WeatherDisplay:10.37,2013-06-23 11:00:00,
2013-06-23 07:10:00,64.3,62.8,30.09,SW,221,0.0,0.0,95,0.00,BKN,,0.01,WeatherDisplay:10.37,2013-06-23 11:10:00,
2013-06-23 07:15:00,64.5,62.7,30.09,SW,221,0.0,2.0,94,0.00,BKN,,0.01,WeatherDisplay:10.37,2013-06-23 11:15:00,
2013-06-23 07:20:00,64.8,63.0,30.09,SW,221,0.0,1.0,94,0.00,BKN,,0.01,WeatherDisplay:10.37,2013-06-23 11:20:00,
2013-06-23 07:25:00,65.2,63.4,30.09,SW,221,0.0,0.0,94,0.00,BKN,,0.01,WeatherDisplay:10.37,2013-06-23 11:25:00,
2013-06-23 07:30:00,65.5,63.1,30.10,SW,221,0.0,1.0,92,0.00,BKN,,0.01,WeatherDisplay:10.37,2013-06-23 11:30:00,
2013-06-23 07:35:00,66.0,63.6,30.10,SW,221,0.0,1.0,92,0.00,BKN,,0.01,WeatherDisplay:10.37,2013-06-23 11:35:00,
2013-06-23 07:40:00,66.4,64.0,30.10,South,178,0.0,1.0,92,0.00,BKN,,0.01,WeatherDisplay:10.37,2013-06-23 11:40:00,
2013-06-23 07:45:00,66.6,63.9,30.11,NE,55,0.0,0.0,91,0.00,BKN,,0.01,WeatherDisplay:10.37,2013-06-23 11:45:00,
2013-06-23 07:50:00,66.9,64.5,30.11,NE,55,0.0,0.0,92,0.00,BKN,,0.01,WeatherDisplay:10.37,2013-06-23 11:50:00,
2013-06-23 07:55:00,67.2,64.1,30.11,ENE,69,0.0,1.0,90,0.00,BKN,,0.01,WeatherDisplay:10.37,2013-06-23 11:55:00,
2013-06-23 08:00:00,67.5,64.1,30.11,ESE,103,0.0,0.0,89,0.00,BKN,,0.01,WeatherDisplay:10.37,2013-06-23 12:00:00,
2013-06-23 08:05:00,67.8,64.1,30.11,ESE,108,0.0,0.0,88,0.00,BKN,,0.01,WeatherDisplay:10.37,2013-06-23 12:05:00,
2013-06-23 08:10:00,68.1,63.8,30.11,SE,125,0.0,2.0,86,0.00,BKN,,0.01,WeatherDisplay:10.37,2013-06-23 12:10:00,
2013-06-23 08:15:00,68.5,64.4,30.11,South,184,0.0,2.0,87,0.00,BKN,,0.01,WeatherDisplay:10.37,2013-06-23 12:15:00,
2013-06-23 08:20:00,68.6,64.6,30.11,South,181,0.0,0.0,87,0.00,BKN,,0.01,WeatherDisplay:10.37,2013-06-23 12:20:00,
2013-06-23 08:25:00,68.7,64.4,30.11,South,181,0.0,0.0,86,0.00,BKN,,0.01,WeatherDisplay:10.37,2013-06-23 12:25:00,
2013-06-23 08:30:00,68.8,65.1,30.11,South,181,0.0,0.0,88,0.00,BKN,,0.01,WeatherDisplay:10.37,2013-06-23 12:30:00,
2013-06-23 08:35:00,68.9,64.5,30.11,South,181,0.0,0.0,86,0.00,BKN,,0.01,WeatherDisplay:10.37,2013-06-23 12:35:00,
2013-06-23 08:40:00,69.0,65.6,30.11,South,181,0.0,0.0,89,0.00,BKN,,0.01,WeatherDisplay:10.37,2013-06-23 12:40:00,
2013-06-23 08:45:00,69.0,64.6,30.11,South,181,0.0,0.0,86,0.00,BKN,,0.01,WeatherDisplay:10.37,2013-06-23 12:45:00,
2013-06-23 08:50:00,69.0,65.3,30.11,South,181,0.0,0.0,88,0.00,BKN,,0.01,WeatherDisplay:10.37,2013-06-23 12:50:00,
2013-06-23 08:55:00,69.1,65.4,30.11,South,181,0.0,0.0,88,0.00,BKN,,0.01,WeatherDisplay:10.37,2013-06-23 12:55:00,
2013-06-23 09:00:00,69.2,65.5,30.11,South,181,0.0,0.0,88,0.00,BKN,,0.01,WeatherDisplay:10.37,2013-06-23 13:00:00,
2013-06-23 09:10:00,69.6,65.6,30.10,South,181,0.0,0.0,87,0.00,SCT,,0.01,WeatherDisplay:10.37,2013-06-23 13:10:00,
2013-06-23 09:15:00,70.0,65.6,30.10,South,181,0.0,0.0,86,0.00,SCT,,0.01,WeatherDisplay:10.37,2013-06-23 13:15:00,
2013-06-23 09:20:00,70.5,66.1,30.10,South,181,0.0,2.0,86,0.00,SCT,,0.01,WeatherDisplay:10.37,2013-06-23 13:20:00,
2013-06-23 09:25:00,71.0,66.3,30.10,South,181,0.0,2.0,85,0.00,SCT,,0.01,WeatherDisplay:10.37,2013-06-23 13:25:00,
2013-06-23 09:30:00,71.5,66.7,30.10,South,181,0.0,1.0,85,0.00,SCT,,0.01,WeatherDisplay:10.37,2013-06-23 13:30:00,
2013-06-23 09:35:00,71.7,66.6,30.10,SE,145,0.0,1.0,84,0.00,SCT,,0.01,WeatherDisplay:10.37,2013-06-23 13:35:00,
2013-06-23 09:40:00,71.8,67.0,30.09,ESE,109,0.0,0.0,85,0.00,SCT,,0.01,WeatherDisplay:10.37,2013-06-23 13:40:00,
2013-06-23 09:45:00,72.0,66.5,30.09,ESE,109,0.0,1.0,83,0.00,SCT,,0.01,WeatherDisplay:10.37,2013-06-23 13:45:00,
2013-06-23 09:50:00,72.3,66.5,30.09,ESE,108,0.0,1.0,82,0.00,SCT,,0.01,WeatherDisplay:10.37,2013-06-23 13:50:00,
2013-06-23 09:55:00,72.8,67.3,30.09,NW,315,0.0,1.0,83,0.00,SCT,,0.01,WeatherDisplay:10.37,2013-06-23 13:55:00,
2013-06-23 10:00:00,73.3,66.8,30.09,North,357,0.0,2.0,80,0.00,SCT,,0.01,WeatherDisplay:10.37,2013-06-23 14:00:00,
2013-06-23 10:10:00,74.3,67.0,30.09,South,181,0.0,2.0,78,0.00,BKN,,0.01,WeatherDisplay:10.37,2013-06-23 14:10:00,
2013-06-23 10:15:00,74.9,67.6,30.09,SSW,207,0.0,2.0,78,0.00,BKN,,0.01,WeatherDisplay:10.37,2013-06-23 14:15:00,
2013-06-23 10:20:00,75.3,69.1,30.08,SW,229,1.0,3.0,81,0.00,BKN,,0.01,WeatherDisplay:10.37,2013-06-23 14:20:00,
2013-06-23 10:25:00,75.9,68.1,30.08,SW,232,1.0,3.0,77,0.00,BKN,,0.01,WeatherDisplay:10.37,2013-06-23 14:25:00,
2013-06-23 10:30:00,76.3,68.2,30.08,SSW,196,1.0,3.0,76,0.00,BKN,,0.01,WeatherDisplay:10.37,2013-06-23 14:30:00,
2013-06-23 10:35:00,76.7,68.9,30.08,SSW,207,1.0,2.0,77,0.00,BKN,,0.01,WeatherDisplay:10.37,2013-06-23 14:35:00,
2013-06-23 10:40:00,77.1,68.9,30.08,WSW,240,0.0,3.0,76,0.00,BKN,,0.01,WeatherDisplay:10.37,2013-06-23 14:40:00,
2013-06-23 10:45:00,77.5,69.7,30.08,WSW,248,0.0,0.0,77,0.00,BKN,,0.01,WeatherDisplay:10.37,2013-06-23 14:45:00,
2013-06-23 10:50:00,77.5,68.9,30.08,WSW,248,0.0,2.0,75,0.00,BKN,,0.01,WeatherDisplay:10.37,2013-06-23 14:50:00,
2013-06-23 10:55:00,77.6,69.4,30.08,West,281,0.0,1.0,76,0.00,BKN,,0.01,WeatherDisplay:10.37,2013-06-23 14:55:00,
2013-06-23 11:00:00,77.6,70.2,30.08,WNW,293,0.0,1.0,78,0.00,BKN,,0.01,WeatherDisplay:10.37,2013-06-23 15:00:00,
2013-06-23 11:10:00,77.5,69.3,30.08,SW,220,0.0,1.0,76,0.00,BKN,,0.01,WeatherDisplay:10.37,2013-06-23 15:10:00,
2013-06-23 11:15:00,77.4,70.0,30.08,SSW,205,0.0,0.0,78,0.00,BKN,,0.01,WeatherDisplay:10.37,2013-06-23 15:15:00,
2013-06-23 11:20:00,77.3,69.9,30.08,SSW,205,0.0,0.0,78,0.00,OVC,,0.01,WeatherDisplay:10.37,2013-06-23 15:20:00,
2013-06-23 11:25:00,77.2,70.5,30.08,SSW,205,0.0,0.0,80,0.00,OVC,,0.01,WeatherDisplay:10.37,2013-06-23 15:25:00,
2013-06-23 11:35:00,77.1,70.8,30.08,SSW,205,0.0,0.0,81,0.00,OVC,,0.01,WeatherDisplay:10.37,2013-06-23 15:35:00,
2013-06-23 11:40:00,77.1,71.2,30.08,SSW,205,0.0,0.0,82,0.00,OVC,,0.01,WeatherDisplay:10.37,2013-06-23 15:40:00,
2013-06-23 11:45:00,77.1,71.2,30.08,SSW,205,0.0,0.0,82,0.00,OVC,,0.01,WeatherDisplay:10.37,2013-06-23 15:45:00,
2013-06-23 11:50:00,77.0,71.1,30.07,SSW,205,0.0,0.0,82,0.00,OVC,,0.01,WeatherDisplay:10.37,2013-06-23 15:50:00,
2013-06-23 11:55:00,77.0,71.4,30.07,SSW,205,0.0,0.0,83,0.00,OVC,,0.01,WeatherDisplay:10.37,2013-06-23 15:55:00,
2013-06-23 12:00:00,77.0,72.1,30.07,SSW,205,0.0,0.0,85,0.00,OVC,,0.01,WeatherDisplay:10.37,2013-06-23 16:00:00,
2013-06-23 12:10:00,77.1,71.9,30.07,SSW,205,0.0,0.0,84,0.00,OVC,,0.01,WeatherDisplay:10.37,2013-06-23 16:10:00,
2013-06-23 12:15:00,77.4,71.9,30.07,SSW,202,0.0,2.0,83,0.00,OVC,,0.01,WeatherDisplay:10.37,2013-06-23 16:15:00,
2013-06-23 12:20:00,77.8,72.6,30.07,South,172,0.0,2.0,84,0.00,OVC,,0.01,WeatherDisplay:10.37,2013-06-23 16:20:00,
2013-06-23 12:25:00,78.0,72.1,30.06,SE,141,0.0,3.0,82,0.00,OVC,,0.01,WeatherDisplay:10.37,2013-06-23 16:25:00,
2013-06-23 12:30:00,78.3,71.2,30.06,South,186,0.0,3.0,79,0.00,OVC,,0.01,WeatherDisplay:10.37,2013-06-23 16:30:00,
2013-06-23 12:35:00,78.6,72.7,30.05,SW,219,0.0,2.0,82,0.00,OVC,,0.01,WeatherDisplay:10.37,2013-06-23 16:35:00,
2013-06-23 12:40:00,79.1,72.4,30.05,SSW,213,0.0,1.0,80,0.00,OVC,,0.01,WeatherDisplay:10.37,2013-06-23 16:40:00,
2013-06-23 12:45:00,79.7,71.4,30.05,SSW,197,1.0,4.0,76,0.00,OVC,,0.01,WeatherDisplay:10.37,2013-06-23 16:45:00,
2013-06-23 12:50:00,80.2,72.3,30.05,SSW,198,1.0,4.0,77,0.00,OVC,,0.01,WeatherDisplay:10.37,2013-06-23 16:50:00,
2013-06-23 12:55:00,80.6,72.7,30.04,SW,219,1.0,2.0,77,0.00,OVC,,0.01,WeatherDisplay:10.37,2013-06-23 16:55:00,
2013-06-23 13:00:00,80.9,73.0,30.04,West,280,1.0,4.0,77,0.00,OVC,,0.01,WeatherDisplay:10.37,2013-06-23 17:00:00,
2013-06-23 13:05:00,81.5,73.6,30.03,SW,214,1.0,4.0,77,0.00,CLR,,0.01,WeatherDisplay:10.37,2013-06-23 17:05:00,
2013-06-23 13:10:00,82.1,73.8,30.03,SSE,157,1.0,4.0,76,0.00,CLR,,0.01,WeatherDisplay:10.37,2013-06-23 17:10:00,
2013-06-23 13:15:00,82.7,74.0,30.03,East,80,1.0,2.0,75,0.00,CLR,,0.01,WeatherDisplay:10.37,2013-06-23 17:15:00,
2013-06-23 13:20:00,83.3,74.2,30.03,East,94,1.0,4.0,74,0.00,CLR,,0.01,WeatherDisplay:10.37,2013-06-23 17:20:00,
2013-06-23 13:25:00,83.9,74.3,30.02,ESE,112,1.0,5.0,73,0.00,CLR,,0.01,WeatherDisplay:10.37,2013-06-23 17:25:00,
2013-06-23 13:30:00,84.4,75.2,30.02,East,98,1.0,3.0,74,0.00,CLR,,0.01,WeatherDisplay:10.37,2013-06-23 17:30:00,
2013-06-23 13:35:00,84.8,74.8,30.02,SE,125,1.0,6.0,72,0.00,CLR,,0.01,WeatherDisplay:10.37,2013-06-23 17:35:00,
2013-06-23 13:40:00,85.1,73.8,30.02,South,180,2.0,7.0,69,0.00,CLR,,0.01,WeatherDisplay:10.37,2013-06-23 17:40:00,
2013-06-23 13:45:00,85.6,76.3,30.02,SSW,208,0.0,3.0,74,0.00,CLR,,0.01,WeatherDisplay:10.37,2013-06-23 17:45:00,
2013-06-23 13:50:00,85.9,75.4,30.01,West,259,1.0,4.0,71,0.00,CLR,,0.01,WeatherDisplay:10.37,2013-06-23 17:50:00,
2013-06-23 13:55:00,86.3,76.2,30.01,WNW,282,1.0,2.0,72,0.00,CLR,,0.01,WeatherDisplay:10.37,2013-06-23 17:55:00,
2013-06-23 14:00:00,86.7,77.4,30.01,WNW,296,0.0,2.0,74,0.00,CLR,,0.01,WeatherDisplay:10.37,2013-06-23 18:00:00,
2013-06-23 14:05:00,87.2,76.6,30.01,SSW,210,2.0,4.0,71,0.00,FEW,,0.01,WeatherDisplay:10.37,2013-06-23 18:05:00,
2013-06-23 14:10:00,87.5,74.7,30.01,South,184,0.0,3.0,66,0.00,FEW,,0.01,WeatherDisplay:10.37,2013-06-23 18:10:00,
2013-06-23 14:15:00,87.8,77.3,30.00,SSW,195,1.0,3.0,71,0.00,FEW,,0.01,WeatherDisplay:10.37,2013-06-23 18:15:00,
2013-06-23 14:20:00,87.9,74.7,30.00,SSW,212,1.0,4.0,65,0.00,FEW,,0.01,WeatherDisplay:10.37,2013-06-23 18:20:00,
2013-06-23 14:25:00,88.1,76.6,30.00,SSE,167,2.0,4.0,69,0.00,FEW,,0.01,WeatherDisplay:10.37,2013-06-23 18:25:00,
2013-06-23 14:30:00,88.2,74.9,30.00,SSW,197,1.0,3.0,65,0.00,FEW,,0.01,WeatherDisplay:10.37,2013-06-23 18:30:00,
2013-06-23 14:35:00,88.2,73.5,30.00,SW,229,3.0,10.0,62,0.00,FEW,,0.01,WeatherDisplay:10.37,2013-06-23 18:35:00,
2013-06-23 14:40:00,88.1,75.3,30.00,SSW,202,2.0,7.0,66,0.00,FEW,,0.01,WeatherDisplay:10.37,2013-06-23 18:40:00,
2013-06-23 14:45:00,87.8,75.9,29.99,SSW,201,0.0,10.0,68,0.00,FEW,,0.01,WeatherDisplay:10.37,2013-06-23 18:45:00,
2013-06-23 14:50:00,87.5,75.2,30.00,South,183,2.0,6.0,67,0.00,FEW,,0.01,WeatherDisplay:10.37,2013-06-23 18:50:00,
2013-06-23 14:55:00,87.1,76.1,30.00,South,181,0.0,6.0,70,0.00,FEW,,0.01,WeatherDisplay:10.37,2013-06-23 18:55:00,
2013-06-23 15:00:00,87.2,76.7,29.99,South,187,1.0,3.0,71,0.00,FEW,,0.01,WeatherDisplay:10.37,2013-06-23 19:00:00,
2013-06-23 15:05:00,87.5,75.6,29.99,SW,235,1.0,3.0,68,0.00,FEW,,0.01,WeatherDisplay:10.37,2013-06-23 19:05:00,
2013-06-23 15:10:00,87.8,76.8,29.98,SW,227,1.0,3.0,70,0.00,FEW,,0.01,WeatherDisplay:10.37,2013-06-23 19:10:00,
2013-06-23 15:15:00,87.9,74.7,29.98,SW,227,2.0,3.0,65,0.00,FEW,,0.01,WeatherDisplay:10.37,2013-06-23 19:15:00,
2013-06-23 15:20:00,88.2,75.8,29.98,West,268,2.0,4.0,67,0.00,FEW,,0.01,WeatherDisplay:10.37,2013-06-23 19:20:00,
2013-06-23 15:25:00,88.2,74.5,29.98,West,263,1.0,5.0,64,0.00,FEW,,0.01,WeatherDisplay:10.37,2013-06-23 19:25:00,
2013-06-23 15:30:00,88.2,74.5,29.98,SW,227,1.0,4.0,64,0.00,FEW,,0.01,WeatherDisplay:10.37,2013-06-23 19:30:00,
2013-06-23 15:35:00,88.2,75.4,29.98,South,178,1.0,3.0,66,0.00,FEW,,0.01,WeatherDisplay:10.37,2013-06-23 19:35:00,
2013-06-23 15:40:00,88.4,73.7,29.98,SSW,209,1.0,3.0,62,0.00,FEW,,0.01,WeatherDisplay:10.37,2013-06-23 19:40:00,
2013-06-23 15:45:00,88.6,75.3,29.97,SW,233,1.0,4.0,65,0.00,FEW,,0.01,WeatherDisplay:10.37,2013-06-23 19:45:00,
2013-06-23 15:50:00,88.6,74.9,29.97,SW,228,2.0,6.0,64,0.00,FEW,,0.01,WeatherDisplay:10.37,2013-06-23 19:50:00,
2013-06-23 15:55:00,88.7,75.0,29.97,SSW,213,2.0,7.0,64,0.00,FEW,,0.01,WeatherDisplay:10.37,2013-06-23 19:55:00,
2013-06-23 16:00:00,88.6,73.9,29.97,South,182,1.0,6.0,62,0.00,FEW,,0.01,WeatherDisplay:10.37,2013-06-23 20:00:00,
2013-06-23 16:05:00,88.5,74.3,29.97,SSW,208,1.0,3.0,63,0.00,FEW,,0.01,WeatherDisplay:10.37,2013-06-23 20:05:00,
2013-06-23 16:10:00,88.4,74.2,29.96,SW,217,2.0,4.0,63,0.00,FEW,,0.01,WeatherDisplay:10.37,2013-06-23 20:10:00,
2013-06-23 16:15:00,88.3,74.6,29.96,South,183,1.0,2.0,64,0.00,FEW,,0.01,WeatherDisplay:10.37,2013-06-23 20:15:00,
2013-06-23 16:20:00,88.4,73.7,29.96,South,171,1.0,5.0,62,0.00,FEW,,0.01,WeatherDisplay:10.37,2013-06-23 20:20:00,
2013-06-23 16:25:00,88.5,73.8,29.96,South,184,2.0,5.0,62,0.00,FEW,,0.01,WeatherDisplay:10.37,2013-06-23 20:25:00,
2013-06-23 16:30:00,88.4,75.1,29.96,SSW,197,0.0,5.0,65,0.00,FEW,,0.01,WeatherDisplay:10.37,2013-06-23 20:30:00,
2013-06-23 16:35:00,88.1,75.7,29.96,SW,218,1.0,5.0,67,0.00,FEW,,0.01,WeatherDisplay:10.37,2013-06-23 20:35:00,
2013-06-23 16:40:00,87.6,74.8,29.96,SW,232,1.0,4.0,66,0.00,FEW,,0.01,WeatherDisplay:10.37,2013-06-23 20:40:00,
2013-06-23 16:45:00,87.3,72.7,29.96,SSW,210,1.0,5.0,62,0.00,FEW,,0.01,WeatherDisplay:10.37,2013-06-23 20:45:00,
2013-06-23 16:50:00,87.1,72.5,29.96,WSW,246,2.0,8.0,62,0.00,FEW,,0.01,WeatherDisplay:10.37,2013-06-23 20:50:00,
2013-06-23 16:55:00,87.1,73.9,29.96,West,263,1.0,3.0,65,0.00,FEW,,0.01,WeatherDisplay:10.37,2013-06-23 20:55:00,
2013-06-23 17:00:00,86.7,73.5,29.95,West,261,2.0,5.0,65,0.00,FEW,,0.01,WeatherDisplay:10.37,2013-06-23 21:00:00,
2013-06-23 17:05:00,86.3,74.5,29.95,West,278,1.0,4.0,68,0.00,FEW,,0.01,WeatherDisplay:10.37,2013-06-23 21:05:00,
2013-06-23 17:10:00,85.8,74.4,29.95,SW,233,2.0,4.0,69,0.00,FEW,,0.01,WeatherDisplay:10.37,2013-06-23 21:10:00,
2013-06-23 17:15:00,85.4,73.6,29.95,SW,230,1.0,3.0,68,0.00,FEW,,0.01,WeatherDisplay:10.37,2013-06-23 21:15:00,
2013-06-23 17:20:00,85.0,73.3,29.95,West,279,0.0,3.0,68,0.00,FEW,,0.01,WeatherDisplay:10.37,2013-06-23 21:20:00,
2013-06-23 17:25:00,85.0,73.7,29.95,West,280,2.0,4.0,69,0.00,FEW,,0.01,WeatherDisplay:10.37,2013-06-23 21:25:00,
2013-06-23 17:30:00,84.9,73.6,29.95,South,181,0.0,3.0,69,0.00,FEW,,0.01,WeatherDisplay:10.37,2013-06-23 21:30:00,
2013-06-23 17:35:00,84.9,74.4,29.94,SSW,194,1.0,3.0,71,0.00,FEW,,0.01,WeatherDisplay:10.37,2013-06-23 21:35:00,
2013-06-23 17:40:00,84.6,74.6,29.95,WSW,246,1.0,3.0,72,0.00,FEW,,0.01,WeatherDisplay:10.37,2013-06-23 21:40:00,
2013-06-23 17:45:00,84.2,73.7,29.94,SSW,197,1.0,3.0,71,0.00,FEW,,0.01,WeatherDisplay:10.37,2013-06-23 21:45:00,
2013-06-23 17:50:00,83.8,73.4,29.94,South,182,1.0,4.0,71,0.00,FEW,,0.01,WeatherDisplay:10.37,2013-06-23 21:50:00,
2013-06-23 17:55:00,83.4,73.4,29.94,SSW,207,0.0,6.0,72,0.00,FEW,,0.01,WeatherDisplay:10.37,2013-06-23 21:55:00,
2013-06-23 18:00:00,83.1,73.2,29.94,SSW,199,1.0,6.0,72,0.00,FEW,,0.01,WeatherDisplay:10.37,2013-06-23 22:00:00,
2013-06-23 18:05:00,83.0,73.0,29.94,SSW,193,0.0,2.0,72,0.00,FEW,,0.01,WeatherDisplay:10.37,2013-06-23 22:05:00,
2013-06-23 18:10:00,82.8,73.3,29.95,SW,222,1.0,3.0,73,0.00,FEW,,0.01,WeatherDisplay:10.37,2013-06-23 22:10:00,
2013-06-23 18:15:00,82.6,73.5,29.95,SW,216,1.0,2.0,74,0.00,FEW,,0.01,WeatherDisplay:10.37,2013-06-23 22:15:00,
2013-06-23 18:20:00,82.5,72.6,29.95,SW,216,0.0,2.0,72,0.00,FEW,,0.01,WeatherDisplay:10.37,2013-06-23 22:20:00,
2013-06-23 18:25:00,82.5,73.0,29.96,SSE,163,1.0,3.0,73,0.00,FEW,,0.01,WeatherDisplay:10.37,2013-06-23 22:25:00,
2013-06-23 18:30:00,82.5,72.6,29.96,South,179,1.0,3.0,72,0.00,FEW,,0.01,WeatherDisplay:10.37,2013-06-23 22:30:00,
2013-06-23 18:35:00,82.6,72.7,29.97,SSW,196,0.0,2.0,72,0.00,FEW,,0.01,WeatherDisplay:10.37,2013-06-23 22:35:00,
2013-06-23 18:40:00,82.7,73.2,29.97,South,178,0.0,1.0,73,0.00,FEW,,0.01,WeatherDisplay:10.37,2013-06-23 22:40:00,
2013-06-23 18:45:00,82.8,73.3,29.97,SW,216,0.0,2.0,73,0.00,FEW,,0.01,WeatherDisplay:10.37,2013-06-23 22:45:00,
2013-06-23 18:50:00,82.8,74.5,29.97,WNW,300,0.0,2.0,76,0.00,FEW,,0.01,WeatherDisplay:10.37,2013-06-23 22:50:00,
2013-06-23 18:55:00,82.7,74.7,29.96,SW,235,1.0,2.0,77,0.00,FEW,,0.01,WeatherDisplay:10.37,2013-06-23 22:55:00,
2013-06-23 19:00:00,82.4,73.6,29.96,SSW,205,0.0,3.0,75,0.00,FEW,,0.01,WeatherDisplay:10.37,2013-06-23 23:00:00,
2013-06-23 19:05:00,82.1,72.6,29.95,SW,232,0.0,1.0,73,0.00,FEW,,0.01,WeatherDisplay:10.37,2013-06-23 23:05:00,
2013-06-23 19:10:00,81.9,73.2,29.95,SSW,206,0.0,2.0,75,0.00,FEW,,0.01,WeatherDisplay:10.37,2013-06-23 23:10:00,
2013-06-23 19:15:00,81.6,72.5,29.96,South,187,0.0,2.0,74,0.00,FEW,,0.01,WeatherDisplay:10.37,2013-06-23 23:15:00,
2013-06-23 19:20:00,81.3,72.2,29.96,SSW,203,0.0,2.0,74,0.00,FEW,,0.01,WeatherDisplay:10.37,2013-06-23 23:20:00,
2013-06-23 19:30:00,80.9,72.2,29.96,SSW,204,1.0,3.0,75,0.00,FEW,,0.01,WeatherDisplay:10.37,2013-06-23 23:30:00,
2013-06-23 19:35:00,80.7,71.6,29.96,SSW,195,0.0,0.0,74,0.00,FEW,,0.01,WeatherDisplay:10.37,2013-06-23 23:35:00,
2013-06-23 19:40:00,80.5,72.2,29.96,South,188,0.0,1.0,76,0.00,FEW,,0.01,WeatherDisplay:10.37,2013-06-23 23:40:00,
2013-06-23 19:45:00,80.2,72.4,29.96,South,188,0.0,1.0,77,0.00,FEW,,0.01,WeatherDisplay:10.37,2013-06-23 23:45:00,
2013-06-23 19:50:00,79.9,72.0,29.97,South,188,0.0,0.0,77,0.00,FEW,,0.01,WeatherDisplay:10.37,2013-06-23 23:50:00,
2013-06-23 19:55:00,79.6,71.8,29.97,South,188,0.0,0.0,77,0.00,FEW,,0.01,WeatherDisplay:10.37,2013-06-23 23:55:00,
2013-06-23 20:00:00,79.4,71.9,29.97,South,188,0.0,1.0,78,0.00,FEW,,0.01,WeatherDisplay:10.37,2013-06-24 00:00:00,
2013-06-23 20:05:00,79.1,71.3,29.97,South,188,0.0,1.0,77,0.00,FEW,,0.01,WeatherDisplay:10.37,2013-06-24 00:05:00,
2013-06-23 20:10:00,78.9,70.7,29.97,South,181,1.0,4.0,76,0.00,FEW,,0.01,WeatherDisplay:10.37,2013-06-24 00:10:00,
2013-06-23 20:15:00,78.6,71.2,29.97,South,175,0.0,2.0,78,0.00,FEW,,0.01,WeatherDisplay:10.37,2013-06-24 00:15:00,
2013-06-23 20:20:00,78.4,71.3,29.97,SE,131,0.0,2.0,79,0.00,FEW,,0.01,WeatherDisplay:10.37,2013-06-24 00:20:00,
2013-06-23 20:25:00,78.2,70.7,29.97,ESE,116,0.0,3.0,78,0.00,FEW,,0.01,WeatherDisplay:10.37,2013-06-24 00:25:00,
2013-06-23 20:30:00,78.0,70.6,29.97,South,181,0.0,1.0,78,0.00,FEW,,0.01,WeatherDisplay:10.37,2013-06-24 00:30:00,
2013-06-23 20:35:00,77.8,70.4,29.98,SSW,202,0.0,2.0,78,0.00,FEW,,0.01,WeatherDisplay:10.37,2013-06-24 00:35:00,
2013-06-23 20:40:00,77.6,70.6,29.98,SW,222,0.0,2.0,79,0.00,FEW,,0.01,WeatherDisplay:10.37,2013-06-24 00:40:00,
2013-06-23 20:45:00,77.5,70.5,29.98,North,358,0.0,0.0,79,0.00,FEW,,0.01,WeatherDisplay:10.37,2013-06-24 00:45:00,
2013-06-23 20:50:00,77.3,69.5,29.98,NE,42,0.0,0.0,77,0.00,FEW,,0.01,WeatherDisplay:10.37,2013-06-24 00:50:00,
2013-06-23 20:55:00,77.1,69.8,29.99,East,82,0.0,0.0,78,0.00,FEW,,0.01,WeatherDisplay:10.37,2013-06-24 00:55:00,
2013-06-23 21:00:00,77.0,70.0,29.99,East,82,0.0,0.0,79,0.00,FEW,,0.01,WeatherDisplay:10.37,2013-06-24 01:00:00,
2013-06-23 21:05:00,76.9,70.3,29.99,ESE,102,0.0,4.0,80,0.00,FEW,,0.01,WeatherDisplay:10.37,2013-06-24 01:05:00,
2013-06-23 21:10:00,76.7,69.7,29.99,South,186,0.0,2.0,79,0.00,FEW,,0.01,WeatherDisplay:10.37,2013-06-24 01:10:00,
2013-06-23 21:15:00,76.5,69.5,29.99,SSW,211,0.0,0.0,79,0.00,FEW,,0.01,WeatherDisplay:10.37,2013-06-24 01:15:00,
2013-06-23 21:20:00,76.4,69.7,30.00,SSW,212,0.0,0.0,80,0.00,FEW,,0.01,WeatherDisplay:10.37,2013-06-24 01:20:00,
2013-06-23 21:25:00,76.2,69.9,30.00,SSW,212,0.0,0.0,81,0.00,FEW,,0.01,WeatherDisplay:10.37,2013-06-24 01:25:00,
2013-06-23 21:30:00,76.0,69.7,30.00,SSW,212,0.0,0.0,81,0.00,FEW,,0.01,WeatherDisplay:10.37,2013-06-24 01:30:00,
2013-06-23 21:35:00,75.8,69.9,30.00,SSW,212,0.0,0.0,82,0.00,FEW,,0.01,WeatherDisplay:10.37,2013-06-24 01:35:00,
2013-06-23 21:40:00,75.7,69.8,30.01,SSW,211,0.0,0.0,82,0.00,FEW,,0.01,WeatherDisplay:10.37,2013-06-24 01:40:00,
2013-06-23 21:45:00,75.4,69.9,30.01,SSW,211,0.0,0.0,83,0.00,FEW,,0.01,WeatherDisplay:10.37,2013-06-24 01:45:00,
2013-06-23 21:50:00,75.2,69.7,30.01,SSW,212,0.0,0.0,83,0.00,FEW,,0.01,WeatherDisplay:10.37,2013-06-24 01:50:00,
2013-06-23 21:55:00,75.0,69.5,30.01,SSW,211,0.0,0.0,83,0.00,FEW,,0.01,WeatherDisplay:10.37,2013-06-24 01:55:00,
2013-06-23 22:00:00,74.8,69.3,30.01,SSW,211,0.0,0.0,83,0.00,FEW,,0.01,WeatherDisplay:10.37,2013-06-24 02:00:00,
2013-06-23 22:05:00,74.6,69.1,30.01,SSW,211,0.0,0.0,83,0.00,CLR,,0.01,WeatherDisplay:10.37,2013-06-24 02:05:00,
2013-06-23 22:10:00,74.5,69.0,30.01,SSW,211,0.0,0.0,83,0.00,CLR,,0.01,WeatherDisplay:10.37,2013-06-24 02:10:00,
2013-06-23 22:15:00,74.4,69.2,30.00,SSW,211,0.0,0.0,84,0.00,CLR,,0.01,WeatherDisplay:10.37,2013-06-24 02:15:00,
2013-06-23 22:20:00,74.3,69.1,30.01,SSW,211,0.0,0.0,84,0.00,CLR,,0.01,WeatherDisplay:10.37,2013-06-24 02:20:00,
2013-06-23 22:25:00,74.1,69.0,30.00,SSW,211,0.0,0.0,84,0.00,CLR,,0.01,WeatherDisplay:10.37,2013-06-24 02:25:00,
2013-06-23 22:30:00,74.0,69.2,30.00,SSW,211,0.0,0.0,85,0.00,CLR,,0.01,WeatherDisplay:10.37,2013-06-24 02:30:00,
2013-06-23 22:35:00,73.9,69.1,30.00,SSW,211,0.0,0.0,85,0.00,CLR,,0.01,WeatherDisplay:10.37,2013-06-24 02:35:00,
2013-06-23 22:40:00,73.7,69.2,30.00,SSW,211,0.0,1.0,86,0.00,CLR,,0.01,WeatherDisplay:10.37,2013-06-24 02:40:00,
2013-06-23 22:45:00,73.5,69.1,30.00,SSW,212,0.0,0.0,86,0.00,CLR,,0.01,WeatherDisplay:10.37,2013-06-24 02:45:00,
2013-06-23 22:50:00,73.3,69.2,30.00,SSW,212,0.0,0.0,87,0.00,CLR,,0.01,WeatherDisplay:10.37,2013-06-24 02:50:00,
2013-06-23 22:55:00,73.1,69.0,30.00,SSW,212,0.0,0.0,87,0.00,CLR,,0.01,WeatherDisplay:10.37,2013-06-24 02:55:00,
2013-06-23 23:00:00,73.0,68.9,29.99,SSW,212,0.0,0.0,87,0.00,CLR,,0.01,WeatherDisplay:10.37,2013-06-24 03:00:00,
2013-06-23 23:05:00,72.8,68.7,29.99,SSW,212,0.0,0.0,87,0.00,CLR,,0.01,WeatherDisplay:10.37,2013-06-24 03:05:00,
2013-06-23 23:10:00,72.7,68.9,29.99,SSW,212,0.0,0.0,88,0.00,CLR,,0.01,WeatherDisplay:10.37,2013-06-24 03:10:00,
2013-06-23 23:15:00,72.6,68.8,29.99,SSW,212,0.0,0.0,88,0.00,CLR,,0.01,WeatherDisplay:10.37,2013-06-24 03:15:00,
2013-06-23 23:20:00,72.5,68.7,29.99,SSW,212,0.0,0.0,88,0.00,CLR,,0.01,WeatherDisplay:10.37,2013-06-24 03:20:00,
2013-06-23 23:25:00,72.4,68.6,29.99,SSW,213,0.0,1.0,88,0.00,CLR,,0.01,WeatherDisplay:10.37,2013-06-24 03:25:00,
2013-06-23 23:30:00,72.3,68.9,29.98,SW,214,0.0,0.0,89,0.00,CLR,,0.01,WeatherDisplay:10.37,2013-06-24 03:30:00,
2013-06-23 23:35:00,72.3,68.5,29.98,SSW,199,0.0,2.0,88,0.00,CLR,,0.01,WeatherDisplay:10.37,2013-06-24 03:35:00,
2013-06-23 23:40:00,72.2,68.4,29.98,South,182,0.0,0.0,88,0.00,CLR,,0.01,WeatherDisplay:10.37,2013-06-24 03:40:00,
2013-06-23 23:45:00,72.2,68.8,29.98,South,182,0.0,0.0,89,0.00,CLR,,0.01,WeatherDisplay:10.37,2013-06-24 03:45:00,
2013-06-23 23:50:00,72.2,68.8,29.98,South,182,0.0,0.0,89,0.00,CLR,,0.01,WeatherDisplay:10.37,2013-06-24 03:50:00,
2013-06-23 23:55:00,72.1,68.7,29.98,South,182,0.0,0.0,89,0.00,CLR,,0.01,WeatherDisplay:10.37,2013-06-24 03:55:00,